[[[{"header":{"parameterUnit":"kt","parameterCategory":2,"dx":1,"dy":1,"la1":30.253999710083008,"la2":30.299108505249023,"lo1":-89.0895004272461,"lo2":-89.04439544677734,"nx":28,"ny":28,"refTime":"2022-10-11T21:00:00:Z","depth":0,"parameterNumber":1,"parameterNumberName":"U-component_of_WINDS"},"data":[1.295,1.3003,1.3019,1.3088,1.3114,1.3164,1.3187,1.3219,1.3249,1.3311,1.335,1.3372,1.3409,1.346,1.3504,1.3514,1.3531,1.3539,1.3549,1.3497,1.3491,1.3486,1.3474,1.3543,1.3543,1.3599,1.36,1.36,1.2914,1.294,1.2981,1.3031,1.3066,1.3068,1.3109,1.3138,1.3183,1.322,1.3259,1.3315,1.3362,1.3397,1.3445,1.3472,1.3476,1.3484,1.3482,1.3488,1.3434,1.3421,1.348,1.348,1.348,1.348,1.348,1.348,1.2853,1.2884,1.2923,1.2967,1.2997,1.303,1.3063,1.3089,1.3129,1.318,1.3191,1.3242,1.3282,1.3348,1.3374,1.3415,1.3409,1.3423,1.3427,1.343,1.3432,1.335,1.3424,1.3424,1.3424,1.3424,1.3424,0,1.2812,1.2823,1.2863,1.2907,1.294,1.2976,1.3012,1.3033,1.3061,1.3093,1.3141,1.3172,1.3233,1.328,1.3329,1.3353,1.3359,1.3361,1.3371,1.3366,1.3356,1.3362,1.3274,1.3358,1.3358,1.3357,1.3357,1.3357,1.2752,1.2786,1.2834,1.2859,1.2882,1.2924,1.2951,1.2973,1.3002,1.305,1.3077,1.3124,1.3163,1.3239,1.3268,1.3314,1.3317,1.3348,1.3324,1.3319,1.3318,1.3316,1.332,1.3351,1.3352,1.3353,1.3353,0,1.2716,1.2741,1.2798,1.2842,1.2854,1.2889,1.2927,1.2959,1.298,1.3028,1.304,1.3073,1.312,1.3144,1.3203,1.3215,1.3276,1.3277,1.3262,1.3264,1.3294,1.3291,1.3387,1.3401,1.3329,1.333,1.333,0,1.2674,1.2718,1.2751,1.2783,1.2834,1.2854,1.2903,1.2925,1.2959,1.2996,1.3006,1.3041,1.3066,1.3106,1.3123,1.3177,1.3188,1.32,1.3204,1.3199,1.3197,1.3214,1.3211,1.3211,1.321,1.321,1.3209,0,1.2615,1.2684,1.2736,1.2756,1.2806,1.2831,1.2853,1.289,1.2917,1.2956,1.2974,1.3018,1.3042,1.3077,1.3098,1.3081,1.3164,1.3145,1.3177,1.3176,1.3193,1.3192,1.3271,1.3209,1.3208,1.3208,1.3208,0,1.2584,1.2622,1.2694,1.2736,1.2753,1.2788,1.2832,1.2867,1.2905,1.2918,1.2949,1.2957,1.3005,1.2985,1.3052,1.3024,1.3048,1.3064,1.3067,1.3072,1.3048,1.309,1.3162,1.3171,1.3078,1.3077,1.3076,0,1.251,1.2589,1.2606,1.2674,1.2714,1.2721,1.276,1.2793,1.2813,1.285,1.2872,1.2914,1.2904,1.292,1.295,1.2975,1.3011,1.2971,1.3026,1.3027,1.3015,1.3082,1.3087,1.3144,1.3063,1.3064,1.3065,0,1.2456,1.2515,1.2526,1.2549,1.2595,1.2628,1.2673,1.2718,1.2742,1.2778,1.2816,1.2875,1.287,1.2897,1.2908,1.2938,1.2987,1.2929,1.293,1.2939,1.3057,1.3062,1.3071,1.2989,1.299,1.2992,1.3054,0,1.2404,1.2446,1.2476,1.2525,1.2554,1.2598,1.2622,1.2649,1.2657,1.2676,1.2733,1.2765,1.2812,1.2828,1.2836,1.2896,1.289,1.2884,1.2865,1.2909,1.293,1.2939,1.2832,1.2831,1.2831,1.2831,0,0,1.2327,1.2387,1.2404,1.2447,1.2472,1.2478,1.2523,1.2548,1.2599,1.2617,1.2607,1.2695,1.2722,1.2788,1.2803,1.2822,1.2835,1.2818,1.2888,1.2894,1.29,1.2922,1.2931,1.283,1.283,1.283,1.283,0,1.2313,1.2339,1.2382,1.2409,1.2449,1.2467,1.2478,1.2519,1.2533,1.2587,1.2592,1.2628,1.2697,1.2725,1.2749,1.2811,1.2812,1.2824,1.2849,1.2884,1.289,1.2896,1.292,1.2928,1.2829,1.2829,1.2829,0,1.2263,1.2293,1.2316,1.2373,1.24,1.244,1.2426,1.2469,1.2499,1.2503,1.2557,1.2578,1.2617,1.2676,1.2703,1.2695,1.2791,1.2764,1.2767,1.277,1.2805,1.2813,1.282,1.2726,1.2725,1.2725,0,0,1.2247,1.2286,1.2324,1.2372,1.2388,1.2415,1.2438,1.2448,1.2482,1.2496,1.2523,1.2557,1.2598,1.2624,1.2663,1.2724,1.2734,1.275,1.2755,1.2759,1.2765,1.28,1.2808,1.2723,1.2723,1.2723,0,0,1.224,1.2286,1.2287,1.2345,1.2378,1.2418,1.2447,1.2449,1.2486,1.2484,1.2503,1.2512,1.2568,1.2588,1.2562,1.2657,1.2638,1.2645,1.2641,1.2648,1.2653,1.2646,1.2553,0,0,0,0,0,1.2236,1.228,1.228,1.2294,1.2365,1.2418,1.2427,1.2443,1.243,1.2452,1.2475,1.2474,1.2578,1.2556,1.2569,1.2597,1.2701,1.2705,1.2709,1.2718,1.2725,1.273,0,0,0,0,0,0,1.2242,1.2258,1.2279,1.2321,1.2338,1.2416,1.2397,1.2403,1.2428,1.2427,1.247,1.2476,1.2491,1.255,1.2562,1.2589,1.2549,1.2702,1.2706,1.2709,1.2721,1.2726,1.2731,0,0,0,0,0,1.2246,1.2259,1.237,1.2321,1.2335,1.2367,1.2396,1.24,1.242,1.2455,1.2461,1.243,1.2491,1.2502,1.2557,1.2583,1.2541,1.2545,1.2705,1.2707,1.271,1.2723,0,0,0,0,0,0,1.2249,1.2264,1.2373,1.2378,1.2305,1.2363,1.2372,1.2398,1.2447,1.2453,1.2415,1.2414,1.2492,1.25,1.2508,1.258,1.2535,1.2539,1.2542,1.2707,1.2709,1.2711,0,0,0,0,0,0,1.2257,1.2268,1.2375,1.2355,1.2358,1.2359,1.2367,1.2416,1.2447,1.2404,1.2405,1.2414,1.2479,1.2499,1.2505,1.2582,1.253,1.2534,1.2537,1.2539,1.2708,1.271,0,0,0,0,0,0,1.2262,1.2271,1.2354,1.2356,1.2358,1.2415,1.2403,1.2475,1.2429,1.2402,1.2426,1.2424,1.2478,1.2485,1.2503,1.2577,1.258,1.253,1.2533,1.2535,1.2536,0,0,0,0,0,0,0,1.2266,1.2199,1.2344,1.2356,1.2358,1.2423,1.2425,1.2426,1.2429,1.2427,1.2426,1.2425,1.2506,1.2511,1.2515,1.2573,0,0,1.2529,1.2531,0,0,0,0,0,0,0,0,1.2195,1.2198,1.2344,1.2345,1.2346,1.2424,1.2425,1.2426,1.2429,1.2427,1.2426,1.2425,1.2507,1.2511,1.2515,0,0,0,0,0,0,0,0,0,0,0,0,0,0,0,1.2344,1.2345,0,1.2424,1.2425,1.2426,1.2428,1.2427,1.2426,1.2426,1.2508,1.2511,1.2514,0,0,0,0,0,0,0,0,0,0,0,0,0,0,0,0,0,0,0,0,0,0,0,0,0,0,0,0,0,0,0,0,0,0,0,0,0,0,0,0,0,0,0,0,0,0,0,0,0,0,0,0,0,0,0,0,0,0,0,0,0,0,0,0,0,0,0,0,0]}],[{"header":{"parameterUnit":"kt","parameterCategory":2,"dx":1,"dy":1,"la1":30.253999710083008,"la2":30.299108505249023,"lo1":-89.0895004272461,"lo2":-89.04439544677734,"nx":28,"ny":28,"refTime":"2022-10-11T21:00:00:Z","depth":0,"parameterNumber":2,"parameterNumberName":"V-component_of_WINDS"},"data":[6.373,6.3888,6.3949,6.4158,6.4247,6.4401,6.4475,6.4577,6.4673,6.4863,6.4983,6.5058,6.5178,6.5336,6.5469,6.5499,6.5553,6.5568,6.5602,6.5481,6.5469,6.5456,6.5424,6.5578,6.5578,6.5721,6.5722,6.5723,6.3645,6.3735,6.3861,6.4025,6.4135,6.4158,6.4289,6.438,6.4516,6.4634,6.4754,6.4926,6.5068,6.5184,6.5332,6.5409,6.5428,6.5445,6.5442,6.5461,6.5333,6.5298,6.5427,6.5427,6.5427,6.5427,6.5427,6.5427,6.3506,6.3598,6.3731,6.387,6.3967,6.4076,6.4174,6.4264,6.4388,6.4548,6.4593,6.4747,6.4876,6.508,6.5162,6.5286,6.5277,6.5314,6.5324,6.5333,6.5337,6.5133,6.5312,6.5312,6.5312,6.5312,6.5312,0,6.3424,6.3468,6.3592,6.3735,6.3838,6.3954,6.4069,6.4131,6.4241,6.4338,6.4485,6.4579,6.4764,6.4909,6.5057,6.5136,6.5169,6.5177,6.5203,6.5187,6.5155,6.5179,6.4973,6.5171,6.517,6.5169,6.5169,6.5168,6.3293,6.339,6.3556,6.3635,6.3713,6.3838,6.3926,6.4014,6.4103,6.4257,6.4333,6.4478,6.4599,6.4821,6.4923,6.5061,6.5079,6.515,6.51,6.5081,6.5087,6.5082,6.5094,6.5158,6.5159,6.516,6.5161,0,6.3214,6.3309,6.3478,6.3631,6.3673,6.3771,6.3903,6.3996,6.4072,6.4211,6.4249,6.4367,6.4508,6.4599,6.4776,6.482,6.4987,6.4998,6.4946,6.4954,6.503,6.5024,6.5252,6.5288,6.5125,6.5126,6.5127,0,6.314,6.3263,6.3398,6.3491,6.3632,6.3718,6.3855,6.3933,6.4043,6.4154,6.4205,6.4307,6.4406,6.4523,6.4586,6.4738,6.477,6.4814,6.483,6.4811,6.4807,6.4861,6.4855,6.4855,6.4854,6.4853,6.4852,0,6.301,6.3223,6.3375,6.3438,6.3613,6.3682,6.3757,6.388,6.3963,6.4085,6.414,6.4275,6.4349,6.4454,6.4535,6.4498,6.472,6.4686,6.4765,6.4764,6.4811,6.4808,6.4985,6.485,6.485,6.485,6.4849,0,6.2965,6.3087,6.3289,6.3437,6.3489,6.3587,6.3727,6.3832,6.3957,6.4004,6.41,6.4144,6.428,6.4241,6.4432,6.4362,6.4433,6.4486,6.4493,6.4513,6.4468,6.4561,6.4717,6.4739,6.453,6.4528,6.4525,0,6.2793,6.3021,6.3096,6.3285,6.3404,6.3455,6.3565,6.3673,6.3745,6.3856,6.3934,6.4058,6.4047,6.4099,6.4181,6.4266,6.4356,6.4256,6.4419,6.4424,6.4389,6.4533,6.4535,6.4672,6.4492,6.4496,6.4498,0,6.267,6.2879,6.2907,6.2985,6.314,6.3238,6.3363,6.3505,6.3576,6.3688,6.3798,6.3971,6.3973,6.4055,6.4104,6.4184,6.4298,6.4174,6.4178,6.4197,6.4481,6.4484,6.4506,6.4313,6.4317,6.4321,6.4472,0,6.259,6.2714,6.2793,6.2956,6.3045,6.3166,6.3262,6.3343,6.3382,6.3454,6.3613,6.3721,6.3863,6.3909,6.3946,6.41,6.4089,6.4087,6.4057,6.4148,6.4201,6.4222,6.3972,6.3971,6.3971,6.3971,0,0,6.2403,6.2582,6.2658,6.2782,6.2862,6.2911,6.3033,6.3116,6.3281,6.3336,6.3319,6.3579,6.3667,6.385,6.3886,6.3941,6.3978,6.394,6.4103,6.4117,6.4131,6.4185,6.4205,6.397,6.397,6.397,6.397,0,6.2394,6.2483,6.2602,6.2692,6.2827,6.2896,6.2924,6.3066,6.3117,6.3271,6.3309,6.3414,6.3615,6.3707,6.3779,6.3921,6.3944,6.3956,6.4004,6.4096,6.4111,6.4124,6.418,6.4199,6.3969,6.3969,6.3969,0,6.2294,6.2399,6.2465,6.2646,6.2734,6.2851,6.2845,6.2967,6.3055,6.3099,6.3251,6.3323,6.3449,6.3607,6.3681,6.3668,6.3907,6.3845,6.385,6.386,6.3954,6.3972,6.3987,6.3782,6.3781,6.378,0,0,6.2272,6.2386,6.2524,6.2651,6.2704,6.2807,6.2878,6.2924,6.3037,6.3081,6.3174,6.3282,6.3402,6.3478,6.3593,6.3752,6.3787,6.3818,6.3827,6.3834,6.3848,6.3944,6.3961,6.3777,6.3777,6.3776,0,0,6.2262,6.2428,6.2447,6.2605,6.2712,6.2855,6.2929,6.2956,6.3069,6.3066,6.3147,6.3179,6.3328,6.3396,6.3334,6.3585,6.3553,6.3569,6.3535,6.3547,6.3556,6.3538,6.334,0,0,0,0,0,6.23,6.2408,6.2424,6.2464,6.2691,6.2847,6.2876,6.2947,6.2925,6.2982,6.3064,6.3082,6.338,6.3328,6.3366,6.3434,6.3727,6.3736,6.3744,6.3738,6.375,6.376,0,0,0,0,0,0,6.2317,6.2366,6.2421,6.2567,6.2619,6.2843,6.2822,6.2844,6.2921,6.2922,6.3065,6.3086,6.3148,6.3313,6.3346,6.341,6.3329,6.3731,6.3738,6.3745,6.3742,6.3752,6.376,0,0,0,0,0,6.233,6.237,6.2715,6.2566,6.2611,6.2731,6.2818,6.2837,6.2897,6.3023,6.3044,6.2943,6.3148,6.3181,6.3333,6.3393,6.3306,6.3319,6.3735,6.3741,6.3747,6.3747,0,0,0,0,0,0,6.234,6.2388,6.2725,6.2742,6.2531,6.272,6.2752,6.283,6.2994,6.3017,6.2904,6.2903,6.3149,6.3175,6.32,6.3383,6.3288,6.33,6.3308,6.374,6.3745,6.3749,0,0,0,0,0,0,6.2367,6.2401,6.2734,6.2685,6.2696,6.271,6.2738,6.2876,6.2996,6.2867,6.2871,6.2902,6.3111,6.3171,6.319,6.3402,6.3274,6.3286,6.3294,6.3299,6.3744,6.3747,0,0,0,0,0,0,6.2383,6.2412,6.2681,6.269,6.27,6.2888,6.2832,6.306,6.2955,6.2858,6.2947,6.2944,6.3106,6.3128,6.3184,6.3387,6.3398,6.3274,6.3282,6.3288,6.3292,0,0,0,0,0,0,0,6.2396,6.2181,6.2629,6.2694,6.2702,6.2892,6.2897,6.2901,6.2954,6.2951,6.2948,6.2945,6.3206,6.3219,6.3232,6.3375,0,0,6.3273,6.3279,0,0,0,0,0,0,0,0,6.2171,6.2179,6.2629,6.2633,6.2636,6.2893,6.2897,6.29,6.2954,6.2951,6.2949,6.2947,6.3209,6.322,6.3231,0,0,0,0,0,0,0,0,0,0,0,0,0,0,0,6.263,6.2633,0,6.2894,6.2897,6.29,6.2953,6.2951,6.2949,6.2947,6.3212,6.3221,6.323,0,0,0,0,0,0,0,0,0,0,0,0,0,0,0,0,0,0,0,0,0,0,0,0,0,0,0,0,0,0,0,0,0,0,0,0,0,0,0,0,0,0,0,0,0,0,0,0,0,0,0,0,0,0,0,0,0,0,0,0,0,0,0,0,0,0,0,0,0]}]]]